Location: Peebles
(55.6412°N, 3.1714°W)
Time: 00:39:23
(UTC+00:00)

A-11 Canister half - Pass Details

Date: 05 October 2023
Orbit: 1525 x 1684 km, 47.3° (Epoch: 04 December)

Event Time Altitude Azimuth Distance (km) Brightness Sun altitude
Rises 19:32:40 0° 282° (WNW) 4,717 13.7 -8.5°
Reaches altitude 10° 19:36:37 10° 268° (W) 3,752 12.7 -9.0°
Maximum altitude 19:43:07 21° 224° (SW) 2,996 11.0 -9.9°
Drops below altitude 10° 19:49:45 10° 180° (S) 3,827 11.0 -10.9°
Sets 19:53:53 0° 166° (SSE) 4,838 11.4 -11.4°
